TGL46T LFMN-LIRF

Flight info

Callsign TGL46T
Flight time 0h 58m
Altitude 29000
Route SODRI DCT RAPUR DCT RATAP DCT BTA/N0448F280 DCT MOULE DCT XOPTA DCT ELB DCT ELKAP
Aircraft A320/M-SDE3FGHIRWY/LB1

Departure

Time 2026-05-01 13:24
Airport Nice-Côte d'Azur Airport (LFMN)

Arrival

Time 2026-05-01 14:22
Airport Rome–Fiumicino Leonardo da Vinci International Airport (LIRF)
Time Latitude Longitude Altitude Speed Heading
2026-05-01 12:47 43.65957 7.20725 24 ft 0 kts 281°
2026-05-01 13:11 43.65957 7.20726 22 ft 1 kts 281°
2026-05-01 13:11 43.65950 7.20757 25 ft 4 kts 304°
2026-05-01 13:11 43.65931 7.20781 23 ft 4 kts 339°
2026-05-01 13:11 43.65905 7.20788 22 ft 4 kts
2026-05-01 13:12 43.65879 7.20782 24 ft 4 kts 20°
2026-05-01 13:12 43.65856 7.20766 22 ft 3 kts 43°
2026-05-01 13:12 43.65854 7.20763 23 ft 0 kts 45°
2026-05-01 13:15 43.65860 7.20772 22 ft 2 kts 45°
2026-05-01 13:15 43.65868 7.20785 26 ft 2 kts 53°
2026-05-01 13:15 43.65866 7.20831 22 ft 5 kts 116°
2026-05-01 13:16 43.65831 7.20858 22 ft 8 kts 168°
2026-05-01 13:16 43.65774 7.20873 23 ft 9 kts 179°
2026-05-01 13:16 43.65709 7.20810 22 ft 14 kts 225°
2026-05-01 13:17 43.65455 7.20465 22 ft 19 kts 224°
2026-05-01 13:17 43.65366 7.20344 22 ft 14 kts 226°
2026-05-01 13:18 43.65284 7.20303 22 ft 5 kts 165°
2026-05-01 13:18 43.65266 7.20316 22 ft 0 kts 144°
2026-05-01 13:19 43.65218 7.20383 22 ft 12 kts 136°
2026-05-01 13:20 43.65155 7.20467 22 ft 14 kts 136°
2026-05-01 13:20 43.65066 7.20517 22 ft 15 kts 181°
2026-05-01 13:20 43.64978 7.20445 22 ft 15 kts 224°
2026-05-01 13:21 43.64837 7.20253 22 ft 14 kts 225°
2026-05-01 13:21 43.64770 7.20188 22 ft 6 kts 188°
2026-05-01 13:21 43.64756 7.20188 22 ft 3 kts 174°
2026-05-01 13:21 43.64718 7.20221 24 ft 9 kts 132°
2026-05-01 13:22 43.64709 7.20297 24 ft 9 kts 47°
2026-05-01 13:22 43.64716 7.20306 23 ft 0 kts 44°
2026-05-01 13:23 43.64734 7.20330 22 ft 24 kts 44°
2026-05-01 13:23 43.65045 7.20758 22 ft 98 kts 45°
2026-05-01 13:23 43.65665 7.21615 25 ft 152 kts 46°
2026-05-01 13:24 43.66405 7.22794 485 ft 161 kts 51°
2026-05-01 13:24 43.66983 7.24076 1192 ft 157 kts 82°
2026-05-01 13:24 43.66688 7.25486 1826 ft 163 kts 133°
2026-05-01 13:25 43.64785 7.27765 2520 ft 204 kts 135°
2026-05-01 13:25 43.63733 7.29118 3245 ft 209 kts 135°
2026-05-01 13:25 43.62662 7.30517 4033 ft 213 kts 134°
2026-05-01 13:25 43.61576 7.31949 4822 ft 218 kts 133°
2026-05-01 13:26 43.60471 7.33411 5552 ft 223 kts 134°
2026-05-01 13:26 43.59148 7.34597 6238 ft 234 kts 156°
2026-05-01 13:26 43.57595 7.35376 6945 ft 240 kts 157°
2026-05-01 13:26 43.56014 7.36170 7670 ft 244 kts 157°
2026-05-01 13:27 43.54415 7.36976 8435 ft 246 kts 156°
2026-05-01 13:27 43.52805 7.37789 9244 ft 247 kts 156°
2026-05-01 13:27 43.49428 7.39509 10286 ft 280 kts 156°
2026-05-01 13:28 43.45467 7.41534 10836 ft 327 kts 157°
2026-05-01 13:28 43.43251 7.42656 11067 ft 350 kts 157°
2026-05-01 13:29 43.38541 7.45020 12271 ft 365 kts 158°
2026-05-01 13:29 43.33701 7.47453 13680 ft 374 kts 157°
2026-05-01 13:30 43.23778 7.52444 16292 ft 386 kts 158°
2026-05-01 13:31 43.18697 7.54986 17533 ft 391 kts 157°
2026-05-01 13:31 43.11946 7.61022 19125 ft 392 kts 126°
2026-05-01 13:32 43.09497 7.67631 20072 ft 392 kts 102°
2026-05-01 13:33 43.08086 7.78744 21423 ft 401 kts 97°
2026-05-01 13:33 43.07184 7.86328 22292 ft 408 kts 97°
2026-05-01 13:34 43.06315 7.94073 23142 ft 415 kts 97°
2026-05-01 13:34 43.05427 8.01953 23924 ft 423 kts 96°
2026-05-01 13:35 43.04506 8.09954 24603 ft 429 kts 96°
2026-05-01 13:35 43.04196 8.12628 24818 ft 431 kts 97°
2026-05-01 13:35 43.03086 8.22105 25585 ft 437 kts 97°
2026-05-01 13:36 43.02600 8.26222 25914 ft 440 kts 96°
2026-05-01 13:36 43.02268 8.29020 26133 ft 442 kts 96°
2026-05-01 13:36 43.00993 8.37247 26773 ft 451 kts 107°
2026-05-01 13:37 42.99725 8.41256 27093 ft 457 kts 115°
2026-05-01 13:37 42.98239 8.45041 27392 ft 460 kts 115°
2026-05-01 13:37 42.96720 8.48902 27706 ft 462 kts 115°
2026-05-01 13:37 42.95192 8.52782 27988 ft 465 kts 116°
2026-05-01 13:38 42.92121 8.60594 28521 ft 470 kts 116°
2026-05-01 13:38 42.90572 8.64534 28810 ft 472 kts 116°
2026-05-01 13:38 42.89015 8.68491 29088 ft 475 kts 115°
2026-05-01 13:39 42.87450 8.72466 29259 ft 476 kts 115°
2026-05-01 13:39 42.84316 8.80395 29251 ft 473 kts 116°
2026-05-01 13:40 42.81178 8.88273 29249 ft 473 kts 116°
2026-05-01 13:40 42.78054 8.96094 29256 ft 473 kts 116°
2026-05-01 13:41 42.74906 9.03950 29246 ft 473 kts 116°
2026-05-01 13:41 42.71758 9.11803 29284 ft 473 kts 115°
2026-05-01 13:42 42.68602 9.19657 29274 ft 473 kts 115°
2026-05-01 13:42 42.65447 9.27490 29282 ft 473 kts 115°
2026-05-01 13:43 42.62281 9.35321 29265 ft 473 kts 116°
2026-05-01 13:43 42.59520 9.43380 29281 ft 468 kts 103°
2026-05-01 13:44 42.58628 9.51971 29317 ft 456 kts 84°
2026-05-01 13:44 42.59607 9.60351 29310 ft 447 kts 72°
2026-05-01 13:45 42.61041 9.68559 29300 ft 447 kts 72°
2026-05-01 13:45 42.62440 9.76716 29303 ft 446 kts 72°
2026-05-01 13:46 42.63833 9.84920 29337 ft 445 kts 72°
2026-05-01 13:46 42.65227 9.93070 29322 ft 442 kts 72°
2026-05-01 13:47 42.66620 10.01190 29309 ft 440 kts 72°
2026-05-01 13:47 42.67995 10.09290 29293 ft 439 kts 72°
2026-05-01 13:48 42.69361 10.17378 29286 ft 439 kts 72°
2026-05-01 13:48 42.70724 10.25465 29318 ft 438 kts 71°
2026-05-01 13:49 42.72058 10.33470 29306 ft 436 kts 71°
2026-05-01 13:49 42.72968 10.41674 29297 ft 445 kts 84°
2026-05-01 13:50 42.72657 10.50121 29281 ft 447 kts 87°
2026-05-01 13:50 42.72311 10.58568 29332 ft 448 kts 88°
2026-05-01 13:51 42.70769 10.66852 29259 ft 460 kts 107°
2026-05-01 13:51 42.67533 10.74421 29255 ft 469 kts 115°
2026-05-01 13:52 42.64075 10.81930 29257 ft 469 kts 115°
2026-05-01 13:52 42.60626 10.89445 29263 ft 469 kts 115°
2026-05-01 13:53 42.57190 10.96890 28944 ft 455 kts 115°
2026-05-01 13:53 42.53905 11.03954 28396 ft 431 kts 114°
2026-05-01 13:53 42.52324 11.07363 28128 ft 425 kts 114°
2026-05-01 13:54 42.50765 11.10742 27858 ft 421 kts 114°
2026-05-01 13:54 42.49215 11.14103 27598 ft 419 kts 114°
2026-05-01 13:54 42.47672 11.17443 27332 ft 417 kts 114°
2026-05-01 13:54 42.46134 11.20765 26894 ft 416 kts 114°
2026-05-01 13:55 42.44773 11.24186 26187 ft 409 kts 104°
2026-05-01 13:55 42.43884 11.27757 25712 ft 394 kts 96°
2026-05-01 13:55 42.43404 11.31373 25208 ft 386 kts 89°
2026-05-01 13:55 42.43012 11.34934 24827 ft 379 kts 89°
2026-05-01 13:56 42.42616 11.38445 24356 ft 375 kts 89°
2026-05-01 13:56 42.42220 11.41899 23901 ft 371 kts 89°
2026-05-01 13:56 42.41825 11.45332 23375 ft 367 kts 89°
2026-05-01 13:56 42.41435 11.48740 22838 ft 363 kts 89°
2026-05-01 13:57 42.41052 11.52104 22377 ft 359 kts 89°
2026-05-01 13:57 42.40590 11.55372 22237 ft 353 kts 97°
2026-05-01 13:57 42.39645 11.58412 22051 ft 357 kts 110°
2026-05-01 13:57 42.38150 11.61138 21682 ft 367 kts 125°
2026-05-01 13:58 42.36294 11.63539 21273 ft 368 kts 127°
2026-05-01 13:58 42.34435 11.65897 20865 ft 365 kts 127°
2026-05-01 13:58 42.32590 11.68235 20521 ft 362 kts 127°
2026-05-01 13:58 42.30762 11.70552 20166 ft 358 kts 127°
2026-05-01 13:59 42.28957 11.72846 19787 ft 355 kts 127°
2026-05-01 13:59 42.27171 11.75128 19412 ft 353 kts 127°
2026-05-01 13:59 42.25390 11.77404 19029 ft 351 kts 127°
2026-05-01 13:59 42.23620 11.79668 18678 ft 349 kts 127°
2026-05-01 14:00 42.21866 11.81913 18296 ft 346 kts 127°
2026-05-01 14:00 42.20136 11.84127 17905 ft 344 kts 128°
2026-05-01 14:00 42.18403 11.86334 17618 ft 339 kts 128°
2026-05-01 14:00 42.16690 11.88505 17354 ft 336 kts 128°
2026-05-01 14:01 42.14999 11.90650 17081 ft 334 kts 128°
2026-05-01 14:01 42.13466 11.92953 16810 ft 323 kts 117°
2026-05-01 14:01 42.12358 11.95507 16571 ft 313 kts 107°
2026-05-01 14:01 42.11440 11.98126 16324 ft 312 kts 107°
2026-05-01 14:02 42.10498 12.00797 16071 ft 311 kts 107°
2026-05-01 14:02 42.09570 12.03417 15828 ft 309 kts 107°
2026-05-01 14:02 42.08644 12.06031 15593 ft 309 kts 108°
2026-05-01 14:02 42.07722 12.08637 15335 ft 308 kts 109°
2026-05-01 14:03 42.06812 12.11202 15087 ft 307 kts 109°
2026-05-01 14:03 42.05892 12.13789 14835 ft 306 kts 109°
2026-05-01 14:03 42.04975 12.16363 14597 ft 305 kts 109°
2026-05-01 14:03 42.04059 12.18930 14173 ft 304 kts 109°
2026-05-01 14:04 42.03147 12.21484 13905 ft 303 kts 110°
2026-05-01 14:04 42.02236 12.24033 13642 ft 302 kts 110°
2026-05-01 14:04 42.01333 12.26560 13396 ft 301 kts 110°
2026-05-01 14:04 42.00731 12.28243 13218 ft 299 kts 110°
2026-05-01 14:05 41.99520 12.31553 13034 ft 290 kts 115°
2026-05-01 14:05 41.98261 12.33649 12892 ft 291 kts 133°
2026-05-01 14:05 41.96549 12.35123 12702 ft 295 kts 153°
2026-05-01 14:05 41.94591 12.35986 12484 ft 296 kts 158°
2026-05-01 14:06 41.92632 12.36792 12253 ft 293 kts 159°
2026-05-01 14:06 41.90687 12.37597 12018 ft 292 kts 158°
2026-05-01 14:06 41.88752 12.38402 11780 ft 290 kts 158°
2026-05-01 14:06 41.86859 12.39192 11552 ft 289 kts 158°
2026-05-01 14:07 41.84920 12.40002 11364 ft 283 kts 158°
2026-05-01 14:07 41.83052 12.40780 11162 ft 279 kts 158°
2026-05-01 14:07 41.81219 12.41543 10920 ft 275 kts 158°
2026-05-01 14:08 41.77589 12.43050 10426 ft 269 kts 158°
2026-05-01 14:08 41.75829 12.43783 10228 ft 267 kts 158°
2026-05-01 14:08 41.74060 12.44524 10001 ft 266 kts 158°
2026-05-01 14:08 41.72280 12.45271 9786 ft 265 kts 159°
2026-05-01 14:09 41.70515 12.46006 9570 ft 265 kts 159°
2026-05-01 14:09 41.68780 12.46725 9346 ft 264 kts 159°
2026-05-01 14:09 41.67027 12.47449 9151 ft 263 kts 159°
2026-05-01 14:09 41.65278 12.48169 8977 ft 263 kts 159°
2026-05-01 14:10 41.63532 12.48890 8810 ft 262 kts 159°
2026-05-01 14:10 41.61793 12.49611 8637 ft 261 kts 159°
2026-05-01 14:10 41.60059 12.50327 8471 ft 260 kts 159°
2026-05-01 14:10 41.58331 12.51039 8297 ft 260 kts 160°
2026-05-01 14:11 41.56603 12.51748 8129 ft 259 kts 160°
2026-05-01 14:11 41.53174 12.53156 7790 ft 257 kts 160°
2026-05-01 14:11 41.51460 12.53857 7511 ft 258 kts 160°
2026-05-01 14:12 41.49754 12.54556 7275 ft 256 kts 160°
2026-05-01 14:12 41.48059 12.55256 7071 ft 255 kts 160°
2026-05-01 14:12 41.46360 12.55939 6888 ft 255 kts 165°
2026-05-01 14:12 41.44598 12.55904 6705 ft 256 kts 197°
2026-05-01 14:13 41.43122 12.54690 6509 ft 254 kts 230°
2026-05-01 14:13 41.42491 12.53364 6384 ft 250 kts 251°
2026-05-01 14:13 41.41794 12.50436 6128 ft 250 kts 256°
2026-05-01 14:13 41.41290 12.48217 5942 ft 249 kts 259°
2026-05-01 14:14 41.41283 12.46007 5749 ft 235 kts 291°
2026-05-01 14:14 41.42103 12.44225 5588 ft 222 kts 322°
2026-05-01 14:14 41.43425 12.43262 5437 ft 216 kts 346°
2026-05-01 14:14 41.44868 12.42669 5278 ft 217 kts 346°
2026-05-01 14:15 41.46313 12.42075 5123 ft 218 kts 345°
2026-05-01 14:15 41.47761 12.41475 4968 ft 217 kts 345°
2026-05-01 14:15 41.49204 12.40878 4796 ft 217 kts 345°
2026-05-01 14:15 41.50638 12.40284 4639 ft 215 kts 346°
2026-05-01 14:16 41.52066 12.39693 4511 ft 215 kts 345°
2026-05-01 14:16 41.53495 12.39101 4361 ft 215 kts 345°
2026-05-01 14:16 41.54926 12.38508 4225 ft 215 kts 345°
2026-05-01 14:16 41.56355 12.37915 4082 ft 215 kts 345°
2026-05-01 14:17 41.57782 12.37324 3941 ft 214 kts 345°
2026-05-01 14:17 41.59206 12.36733 3799 ft 214 kts 345°
2026-05-01 14:17 41.60626 12.36143 3657 ft 213 kts 345°
2026-05-01 14:17 41.62040 12.35556 3520 ft 213 kts 345°
2026-05-01 14:18 41.63456 12.34968 3337 ft 213 kts 345°
2026-05-01 14:18 41.64868 12.34381 3113 ft 212 kts 345°
2026-05-01 14:18 41.66255 12.33804 2997 ft 212 kts 344°
2026-05-01 14:18 41.67205 12.33408 2839 ft 212 kts 345°
2026-05-01 14:19 41.69081 12.32628 2488 ft 211 kts 344°
2026-05-01 14:19 41.70462 12.32052 2210 ft 211 kts 344°
2026-05-01 14:19 41.71865 12.31467 1962 ft 213 kts 346°
2026-05-01 14:19 41.73277 12.30879 1677 ft 211 kts 343°
2026-05-01 14:20 41.74663 12.30301 1377 ft 206 kts 346°
2026-05-01 14:20 41.77199 12.29241 894 ft 176 kts 345°
2026-05-01 14:20 41.78325 12.28772 646 ft 163 kts 345°
2026-05-01 14:21 41.79356 12.28335 436 ft 149 kts 345°
2026-05-01 14:21 41.80307 12.27930 274 ft 142 kts 345°
2026-05-01 14:21 41.81238 12.27546 81 ft 139 kts 346°
2026-05-01 14:22 41.82688 12.26953 19 ft 62 kts 342°
2026-05-01 14:22 41.82980 12.26822 16 ft 37 kts 333°
2026-05-01 14:22 41.83168 12.26607 13 ft 22 kts 312°